Simultaneous Nadir Overpasses (SNOs) Predictions

Prediction of SNOs between AURA and LANDSAT-8 Satellite Orbit:

Table of predicted SNOs for the next 14.0 days since TLE Epoch: 12/5/2025
Index Date (AURA) Time (AURA) Lat,Lon (AURA) SZA (AURA ) Date (LANDSAT-8) Time (LANDSAT-8) Lat,Lon (LANDSAT-8) SZA (LANDSAT-8 ) Distance(km) Time Diff (sec)
1 12/08/2025 22:25:42 -73.62, 29.13 83.53 12/08/2025 22:24:37 -73.65, 26.26 83.59 90.06 65
2 12/08/2025 23:15:06 73.84,-163.68 96.68 12/08/2025 23:13:59 73.83,-165.71 96.60 62.87 67
3 12/09/2025 00:04:31 -74.21, 3.13 82.98 12/09/2025 00:03:19 -74.22, 2.82 82.98 9.41 72
4 12/09/2025 00:53:52 74.28, 170.65 97.09 12/09/2025 00:52:43 74.30, 170.64 97.10 2.09 69
5 12/09/2025 01:43:10 -74.29, -21.70 82.90 12/09/2025 01:42:11 -74.28, -21.77 82.92 2.22 59
6 12/09/2025 02:32:30 74.30, 145.94 97.12 12/09/2025 02:31:36 74.30, 145.93 97.12 0.26 54
7 12/09/2025 03:21:48 -74.31, -46.41 82.87 12/09/2025 03:21:03 -74.34, -46.35 82.85 3.21 45
8 12/09/2025 04:11:08 74.32, 121.23 97.15 12/09/2025 04:10:29 74.31, 121.22 97.13 2.03 39
9 12/09/2025 05:00:26 -74.33, -71.12 82.84 12/09/2025 04:59:56 -74.34, -71.06 82.84 1.80 30
10 12/09/2025 05:49:46 74.35, 96.52 97.18 12/09/2025 05:49:21 74.36, 96.63 97.19 3.82 25
11 12/09/2025 06:39:04 -74.36, -95.83 82.82 12/09/2025 06:38:49 -74.34, -95.77 82.83 2.11 15
12 12/09/2025 07:28:24 74.37, 71.81 97.21 12/09/2025 07:28:14 74.37, 71.92 97.20 3.50 10
13 12/09/2025 08:17:41 -74.33,-120.42 82.84 12/09/2025 08:17:42 -74.35,-120.48 82.82 3.08 1
14 12/09/2025 09:07:01 74.34, 47.22 97.19 12/09/2025 09:07:07 74.37, 47.21 97.21 3.22 6
15 12/09/2025 09:56:19 -74.35,-145.13 82.81 12/09/2025 09:56:35 -74.35,-145.19 82.81 2.01 16
16 12/09/2025 10:45:39 74.37, 22.51 97.21 12/09/2025 10:46:00 74.38, 22.50 97.23 1.14 21
17 12/09/2025 11:34:57 -74.37,-169.84 82.78 12/09/2025 11:35:28 -74.36,-169.90 82.79 2.64 31
18 12/09/2025 12:24:17 74.39, -2.20 97.24 12/09/2025 12:24:53 74.38, -2.21 97.24 0.98 36
19 12/09/2025 13:13:35 -74.40, 165.45 82.75 12/09/2025 13:14:20 -74.41, 165.51 82.73 2.54 45
20 12/09/2025 14:02:55 74.41, -26.92 97.27 12/09/2025 14:03:46 74.38, -26.92 97.25 3.07 51
21 12/09/2025 14:52:13 -74.42, 140.74 82.72 12/09/2025 14:53:13 -74.42, 140.80 82.72 1.82 60
22 12/09/2025 15:41:33 74.44, -51.63 97.30 12/09/2025 15:42:38 74.44, -51.51 97.31 3.72 65
23 12/09/2025 16:30:53 -74.55, 115.77 82.60 12/09/2025 16:32:04 -74.53, 116.33 82.60 16.79 71
24 12/09/2025 17:20:17 74.77, -77.11 97.62 12/09/2025 17:21:25 74.75, -75.46 97.65 48.28 68
25 12/09/2025 18:09:42 -75.12, 89.62 82.04 12/09/2025 18:10:46 -75.09, 93.04 81.99 97.99 64



Historial Predications of SNOs between AURA and LANDSAT-8
